8,
Avoca, PA
on Wednesday, September 17, 2014

Wednesday
Previous Day Next Day
Daily Summary
 ActualAverageRecord
Temperature
Mean Temperature °F 62°F  
Max Temperature 69°F 72°F 87°F (1991)
Min Temperature 42°F 52°F 36°F (1986)
Degree Days
Heating Degree Days 10 5  
Month to date heating degree days 54 47  
Since 1 July heating degree days 65 73  
Cooling Degree Days 0 1  
Month to date cooling degree days 77 41  
Year to date cooling degree days 663 565  
Growing Degree Days6 (Base °F )  
Moisture
Dew Point 43°F   
Average Humidity 66    
Maximum Humidity 93    
Minimum Humidity 39    
Precipitation
Precipitation 0.00 in 0.14 in 2.54 in (2004)
Month to date precipitation 0.48 2.24  
Year to date precipitation 22.04 27.27  
Wind
Wind Speed 4 mph   
Max Wind Speed 13 mph   
Max Gust Speed 17 mph   
Visibility 9.2 miles   
Events     

Key: T is trace of precipitation, MM is missing value
Source: Averaged Metar Reports
Time(EDT)TemperatureDew PointHumidity Pressure Visibility Wind DirectionWind SpeedGust SpeedPrecipitationEvents Conditions
12:54 AM 48.0°F 45.0°F 89% 30.06 in 10.0 miles East 5.8 mph - N/A   Partly Cloudy
1:54 AM 46.9°F 44.1°F 90% 30.06 in 10.0 miles East 4.6 mph - N/A   Clear
2:54 AM 46.0°F 43.0°F 89% 30.06 in 10.0 miles ESE 4.6 mph - N/A   Clear
3:54 AM 45.0°F 43.0°F 93% 30.06 in 10.0 miles ESE 5.8 mph - N/A   Clear
4:54 AM 44.1°F 42.1°F 93% 30.06 in 10.0 miles ESE 4.6 mph - N/A   Clear
5:51 AM 42.8°F 41.0°F 93% 30.07 in 10.0 miles ESE 4.6 mph - N/A   Scattered Clouds
5:54 AM 44.1°F 41.0°F 89% 30.07 in 10.0 miles ESE 3.5 mph - N/A   Mostly Cloudy
6:34 AM 44.1°F 41.0°F 89% 30.07 in 10.0 miles ESE 3.5 mph - N/A   Overcast
6:54 AM 44.1°F 41.0°F 89% 30.08 in 10.0 miles ESE 3.5 mph - N/A   Overcast
7:12 AM 44.1°F 42.1°F 93% 30.08 in 10.0 miles ESE 4.6 mph - N/A   Overcast
7:33 AM 44.1°F 42.1°F 93% 30.08 in 0.8 miles East 3.5 mph - N/A   Overcast
7:49 AM 44.6°F 42.8°F 93% 30.08 in 1.0 miles East 3.5 mph - N/A   Overcast
7:54 AM 44.1°F 42.1°F 93% 30.09 in 5.0 miles ESE 3.5 mph - N/A   Overcast
8:01 AM 44.1°F 42.1°F 93% 30.08 in 10.0 miles ESE 5.8 mph - N/A   Overcast
8:18 AM 46.0°F 43.0°F 89% 30.08 in 10.0 miles Calm Calm - N/A   Mostly Cloudy
8:25 AM 46.9°F 42.1°F 83% 30.08 in 10.0 miles Calm Calm - N/A   Partly Cloudy
8:32 AM 48.0°F 43.0°F 83% 30.08 in 10.0 miles Calm Calm - N/A   Partly Cloudy
8:54 AM 50.0°F 45.0°F 83% 30.09 in 10.0 miles Calm Calm - N/A   Clear
9:54 AM 52.0°F 46.0°F 80% 30.09 in 8.0 miles SSW 3.5 mph - N/A   Clear
10:54 AM 57.9°F 48.0°F 70% 30.08 in 9.0 miles NW 4.6 mph - N/A   Clear
11:54 AM 63.0°F 46.9°F 56% 30.06 in 10.0 miles WSW 6.9 mph - N/A   Clear
12:54 PM 64.9°F 42.1°F 43% 30.03 in 10.0 miles NNW 4.6 mph - N/A   Scattered Clouds
1:54 PM 66.2°F 42.8°F 43% 30.01 in 10.0 miles North - - N/A   Scattered Clouds
2:54 PM 68.0°F 42.1°F 39% 29.98 in 10.0 miles SW 5.8 mph - N/A   Mostly Cloudy
3:54 PM 66.9°F 42.1°F 40% 29.97 in 10.0 miles SW 5.8 mph - N/A   Clear
4:54 PM 66.9°F 41.0°F 39% 29.97 in 10.0 miles WSW 10.4 mph - N/A   Scattered Clouds
5:54 PM 66.0°F 41.0°F 40% 29.98 in 10.0 miles SW 5.8 mph - N/A   Mostly Cloudy
6:54 PM 64.0°F 41.0°F 43% 29.98 in 10.0 miles SW 6.9 mph - N/A   Partly Cloudy
7:54 PM 59.0°F 42.1°F 53% 29.99 in 10.0 miles South 3.5 mph - N/A   Clear
8:54 PM 55.0°F 43.0°F 64% 29.99 in 10.0 miles ESE 4.6 mph - N/A   Clear
9:54 PM 54.0°F 43.0°F 66% 29.99 in 10.0 miles East 6.9 mph - N/A   Clear
10:54 PM 51.1°F 43.0°F 74% 29.99 in 10.0 miles ESE 8.1 mph - N/A   Clear
Astronomy
Sunrise:06:45 AM (EDT) Moon Rise:12:40 AM (EDT)9/17
Sunset:07:08 PM (EDT) Moon Set:03:19 PM (EDT)9/17
Moon Phase
Sep. 17 Sep. 24 Oct. 01 Oct. 08 Oct. 15

Copyright © 2014 The Weather Underground, Inc.
8,